Torna al catalogo

STARLINK-4445

AttivoComunicazioniSSO
NORAD 53474·PAYLOAD·🇺🇸 United States

Lanciato Aug 12, 2022 da Vandenberg Space Force Base

Loading…

Prossimi Passaggi (prossime 24 ore)

TLE

AggiornatoSource: CelesTrak SupGP

Epoca: Sep 14, 2026, 22:08 UTC

1 53474C 22099K   26257.92270833  .00589190  00000+0  33695-1 0  2576
2 53474  97.2858  12.0666 0001735  89.4420 229.5591 15.12461891    10

Traccia STARLINK-4445 in tempo reale con AllMySat

Download on the App Store